Location: Juzet
(42.9779°N, 0.7597°E)
Time: 02:55:09
(UTC+00:00)

BREEZE-M DEB (TANK) - Pass Details

Date: 14 July 2020
Orbit: 274 x 20503 km, 49.2° (Epoch: 04 August)

Event Time Altitude Azimuth Distance (km) Brightness Sun altitude
Exits shadow 01:55:21 13° 300° (WNW) 1,293 4.7 -20.4°
Maximum altitude 01:57:41 83° 27° (NNE) 631 3.1 -20.2°
Drops below altitude 10° 02:05:55 10° 117° (ESE) 4,330 7.4 -19.5°
Sets 02:13:04 0° 119° (ESE) 7,452 8.6 -18.8°
